TimeCDT,TemperatureF,Dew PointF,Humidity,Sea Level PressureIn,VisibilityMPH,Wind Direction,Wind SpeedMPH,Gust SpeedMPH,PrecipitationIn,Events,Conditions,WindDirDegrees,DateUTC
12:55 AM,66.9,57.9,73,29.87,10.0,NW,15.0,26.5,N/A,,Clear,310,2013-06-13 05:55:00
1:18 AM,66.2,57.2,73,29.88,10.0,WNW,16.1,25.3,N/A,,Mostly Cloudy,300,2013-06-13 06:18:00
1:55 AM,64.9,57.9,78,29.88,10.0,WNW,13.8,23.0,N/A,,Overcast,300,2013-06-13 06:55:00
2:55 AM,66.0,57.9,75,29.88,10.0,WNW,13.8,21.9,N/A,,Overcast,300,2013-06-13 07:55:00
3:38 AM,66.2,57.2,73,29.91,10.0,WNW,12.7,20.7,N/A,,Overcast,300,2013-06-13 08:38:00
3:55 AM,66.0,57.0,73,29.90,10.0,NW,8.1,18.4,N/A,,Overcast,310,2013-06-13 08:55:00
4:34 AM,64.4,57.2,77,29.92,10.0,NW,9.2,-,N/A,,Overcast,310,2013-06-13 09:34:00
4:55 AM,64.9,57.9,78,29.93,10.0,WNW,10.4,17.3,N/A,,Overcast,300,2013-06-13 09:55:00
5:42 AM,64.4,57.2,77,29.96,10.0,NW,9.2,-,N/A,,Scattered Clouds,310,2013-06-13 10:42:00
5:55 AM,63.0,57.0,81,29.96,10.0,NW,10.4,-,N/A,,Clear,310,2013-06-13 10:55:00
6:55 AM,64.0,57.0,78,29.98,10.0,WNW,10.4,-,N/A,,Clear,300,2013-06-13 11:55:00
7:18 AM,64.4,57.2,77,30.00,10.0,NNW,9.2,-,N/A,,Mostly Cloudy,330,2013-06-13 12:18:00
7:55 AM,66.0,59.0,78,29.99,10.0,NNW,11.5,17.3,N/A,,Overcast,340,2013-06-13 12:55:00
8:20 AM,68.0,60.8,78,30.02,10.0,North,11.5,-,N/A,,Scattered Clouds,350,2013-06-13 13:20:00
8:55 AM,70.0,61.0,73,30.02,10.0,North,9.2,-,N/A,,Clear,360,2013-06-13 13:55:00
9:55 AM,73.0,62.1,68,30.02,10.0,North,9.2,-,N/A,,Clear,10,2013-06-13 14:55:00
10:55 AM,75.9,61.0,60,30.03,10.0,North,10.4,-,N/A,,Clear,360,2013-06-13 15:55:00
11:55 AM,77.0,61.0,58,30.04,10.0,NE,6.9,-,N/A,,Clear,40,2013-06-13 16:55:00
12:55 PM,78.1,62.1,58,30.04,10.0,Variable,4.6,-,N/A,,Clear,0,2013-06-13 17:55:00
1:55 PM,80.1,62.1,54,30.04,10.0,NNW,6.9,-,N/A,,Clear,330,2013-06-13 18:55:00
2:55 PM,82.0,61.0,49,30.03,10.0,North,8.1,-,N/A,,Clear,10,2013-06-13 19:55:00
3:55 PM,82.9,61.0,47,30.02,10.0,NNE,6.9,-,N/A,,Scattered Clouds,20,2013-06-13 20:55:00
4:55 PM,81.0,61.0,50,30.04,10.0,NW,5.8,-,N/A,,Clear,320,2013-06-13 21:55:00
5:55 PM,79.0,61.0,54,30.04,10.0,NNW,4.6,-,N/A,,Clear,330,2013-06-13 22:55:00
6:55 PM,77.0,62.1,60,30.05,10.0,NW,3.5,-,N/A,,Clear,320,2013-06-13 23:55:00
7:55 PM,73.9,64.0,71,30.02,10.0,ENE,4.6,-,N/A,,Clear,60,2013-06-14 00:55:00
8:55 PM,72.0,62.1,71,29.98,10.0,East,4.6,-,N/A,,Clear,80,2013-06-14 01:55:00
9:55 PM,70.0,61.0,73,29.96,10.0,ENE,5.8,-,N/A,,Clear,70,2013-06-14 02:55:00
10:55 PM,63.0,61.0,93,30.02,10.0,WSW,3.5,-,N/A,,Clear,250,2013-06-14 03:55:00
11:55 PM,63.0,61.0,93,30.03,10.0,West,3.5,-,N/A,,Clear,280,2013-06-14 04:55:00